Location: Burkes Observatory
(44.7598°N, 69.4315°W)
Time: 04:53:39
(UTC-04:00)

Daily predictions for brighter satellites

Satellite Brightness Start Highest point End
(mag) Time Altitude Azimuth Time Altitude Azimuth Time Altitude Azimuth
SeaSat 1 3.6 00:09:02 41° N 00:09:02 41° N 00:12:19 10° NNW
Lacrosse 5 3.9 00:08:00 10° WNW 00:09:43 21° WNW 00:09:43 21° WNW
Tsikada Rocket 4.3 00:08:52 10° N 00:14:12 59° NE 00:14:12 59° NE
Cosmos 1459 Rocket 4.3 00:15:57 60° NW 00:15:57 60° NW 00:21:19 10° N
Cosmos 1943 Rocket 4.1 00:33:54 10° NW 00:36:08 19° WNW 00:36:08 19° WNW
H-2A R/B 4.3 00:45:23 21° NW 00:45:23 21° NW 00:47:08 10° NNW
COSMOS 2406 3.9 01:08:41 51° NE 01:08:41 51° NE 01:12:55 10° NNE
Cosmos 2233 Rocket 4.2 01:08:31 64° NNW 01:08:31 64° NNW 01:13:45 10° N
SL-16 R/B 4.5 01:06:44 15° E 01:10:03 23° ENE 01:14:44 10° N
Cosmos 1697 Rocket 4.4 01:09:11 10° N 01:14:00 28° NE 01:16:06 22° E
ADEOS Rocket 3.6 01:15:16 10° N 01:21:57 52° WNW 01:21:58 52° WNW
Cosmos 2082 Rocket 3.9 01:24:50 23° E 01:24:50 23° E 01:28:21 10° NE
Mayak 1.5 01:32:37 10° NNW 01:33:35 13° NW 01:33:35 13° NW
Cosmos 909 Rocket 4.4 01:30:05 10° NNW 01:36:19 60° NE 01:37:38 50° E
Cosmos 1656 4.1 01:35:09 10° NNW 01:40:38 59° NE 01:40:38 59° NE
Resurs 1-4 Rocket 3.9 01:38:21 10° NE 01:42:18 21° E 01:42:27 21° E
Meteor 1-13 Rocket 4.4 01:58:46 70° N 01:58:46 70° N 02:03:51 10° N
SL-08 R/B 4.4 01:58:50 40° ENE 01:59:00 40° ENE 02:03:34 10° N
Cosmos 1833 Rocket 3.3 01:59:55 49° E 01:59:55 49° E 02:04:53 10° NE
Cosmos 2369 3.9 01:54:31 10° NNW 01:59:23 67° NNW 01:59:23 67° NNW
Lacrosse 4 Rocket 2.8 02:02:07 10° NNW 02:05:06 38° N 02:05:06 38° N
CZ-4B R/B 4.4 02:13:55 13° NNW 02:13:55 13° NNW 02:14:19 10° NNW
Gbstr 26 Del rocket 4.4 02:16:39 52° W 02:18:46 75° NNW 02:25:51 10° ENE
Iridium 4 Rocket 4.1 02:21:01 42° ENE 02:21:01 42° ENE 02:24:52 10° NNE
Cosmos 1607 3.8 02:20:37 78° S 02:21:04 85° ESE 02:27:36 10° NE
Cosmos 1536 Rocket 4.5 02:23:24 45° N 02:23:24 45° N 02:26:28 10° N
Cosmos 2034 Rocket 4.0 02:25:57 62° W 02:26:08 63° W 02:32:21 10° N
ARIANE 5 R/B 3.6 02:27:24 10° NNE 02:32:13 36° E 02:33:21 32° SE
Cosmos 1867 3.8 02:28:49 10° NW 02:33:14 57° WNW 02:33:14 57° WNW
Lacrosse 5 rocket 2.2 02:35:45 48° NE 02:35:45 48° NE 02:38:48 10° NE
Cosmos 1092 Rocket 3.9 02:30:15 10° N 02:36:30 87° W 02:37:32 65° S
Cosmos 332 Rocket 4.1 02:37:47 59° NNW 02:37:47 59° NNW 02:42:00 10° NNE
Cosmos 371 Rocket 3.5 02:38:31 63° NNW 02:38:31 63° NNW 02:42:54 10° NNE
Meteor 1-23 Rocket 4.1 02:38:30 73° WSW 02:38:45 74° WNW 02:44:28 10° N
Meteor 2-4 Rocket 4.2 02:39:37 43° WNW 02:39:37 43° WNW 02:44:25 10° N
Exosat Rocket 4.2 02:34:59 10° NNW 02:40:54 70° WSW 02:42:46 51° S
Okean 2 4.0 02:43:32 54° NNE 02:43:32 54° NNE 02:46:45 10° N
CZ-2D R/B 2.1 02:41:12 10° NNE 02:46:37 75° ESE 02:47:19 65° SSE
Helios 1A Rocket 4.3 02:46:44 10° NNE 02:50:28 31° E 02:51:05 30° ESE
SL-16 R/B 2.4 02:51:48 56° SSW 02:53:04 71° WSW 02:59:21 10° NNW
Cosmos 1980 Rocket 2.1 02:50:16 10° NNW 02:55:55 88° ENE 02:58:11 38° SSE
Cosmos 1726 Rocket 4.5 02:52:52 10° N 02:57:01 44° ENE 02:58:27 32° SE
Cosmos 1697 Rocket 2.9 02:52:46 10° NW 02:57:47 51° W 02:57:47 51° W
IRS-1D 3.5 02:53:23 10° NNE 02:58:35 80° ESE 02:59:31 60° S
IRS-1C 4.0 02:57:28 10° NNE 03:02:50 80° WNW 03:03:43 62° SW
Cosmos 1627 Rocket 4.4 02:58:06 10° N 03:04:29 77° W 03:06:37 44° S
ADEOS II 3.8 03:02:56 10° NE 03:07:22 27° E 03:11:23 12° SSE
Cosmos 2082 Rocket 2.4 03:06:40 48° W 03:07:37 54° WNW 03:13:12 10° NNE
SL-16 R/B 3.4 03:03:22 10° NNW 03:08:44 41° ENE 03:14:04 10° SE
Okean 1-7 Rocket 3.5 03:09:03 70° SSE 03:09:31 82° E 03:14:03 10° N
ADEOS 4.4 03:04:56 10° NNE 03:09:57 45° E 03:12:28 26° SSE
H-2A R/B 3.2 03:07:11 10° N 03:10:57 43° WNW 03:10:57 43° WNW
Cosmos 304 Rocket 3.6 03:11:51 67° SSW 03:12:30 87° WNW 03:17:22 10° NNE
UNKNOWN OBJECT B 3.6 03:13:49 10° NNE 03:17:33 45° E 03:18:22 38° SE
Cosmos 2058 Rocket 3.8 03:13:50 10° N 03:18:10 53° ENE 03:20:58 21° SSE
ATLAS 3B R/B 3.7 03:16:15 22° S 03:20:22 41° ESE 03:26:46 10° NE
MOZ.5/SAFIR/RUBIN 5/SL-8 3.8 03:21:26 57° WSW 03:21:49 59° W 03:26:31 10° NNW
Meteor 1-22 Rocket 4.3 03:16:10 10° N 03:22:12 84° E 03:26:19 20° SSE
Cosmos 1544 3.4 03:18:39 10° NNW 03:21:44 57° NW 03:21:44 57° NW
Resurs 1-4 Rocket 2.3 03:17:19 10° N 03:22:27 54° WNW 03:23:33 45° WSW
Cosmos 2228 3.3 03:18:20 10° N 03:22:36 63° E 03:24:39 29° SSE
Cosmos 2322 Rocket 3.0 03:18:52 10° NNW 03:24:23 51° ENE 03:29:50 10° SE
Cosmos 1606 Rocket 3.4 03:20:54 10° NNW 03:25:13 75° W 03:25:51 61° SSW
Cosmos 1634 Rocket 4.2 03:24:53 40° SW 03:26:40 52° WNW 03:32:48 10° N
SJ 16-02 3.5 03:33:22 10° N 03:37:09 27° ENE 03:40:56 10° ESE
Cosmos 1763 Rocket 3.7 03:34:39 31° S 03:37:11 72° ESE 03:42:30 10° NNE
Cosmos 1892 Rocket 3.4 03:38:18 43° SSW 03:39:42 81° W 03:44:07 10° N
Cosmos 2279 Rocket 4.0 03:36:56 32° SSW 03:39:57 68° W 03:46:13 10° N
USA 215 4.1 03:35:18 10° ENE 03:41:23 39° SE 03:45:36 19° S
Cosmos 1842 3.4 03:41:25 35° S 03:42:57 73° E 03:46:56 10° NNE
Cosmos 1025 Rocket 4.2 03:42:56 26° WNW 03:42:59 26° WNW 03:46:36 10° NNW
ATLAS CENTAUR R/B 4.1 03:39:39 10° NNW 03:43:10 23° NE 03:46:51 10° E
Cosmos 1833 Rocket 3.9 03:41:36 23° W 03:43:37 29° NW 03:48:29 10° N
COSMOS 2487 3.5 03:45:12 30° WNW 03:45:12 30° WNW 03:48:17 10° N
Cosmos 2026 Rocket 4.5 03:41:12 10° NNW 03:47:06 41° W 03:49:30 29° SW
Transit 2A Rocket 4.4 03:42:38 10° NW 03:47:10 68° WSW 03:51:26 10° SSE
Cosmos 2208 Rocket 4.5 03:46:29 33° WSW 03:48:19 46° WNW 03:53:23 10° N
deb Kosmos-1763 4.4 03:48:12 34° S 03:49:38 63° ESE 03:53:22 10° NNE
Cosmos 1898 Rocket 3.8 03:45:10 10° NNW 03:50:07 45° WSW 03:52:29 27° SSW
BREEZE-M DEB (TANK) 4.1 03:53:17 13° SE 03:53:17 13° SE 03:54:24 10° ESE
Cosmos 44 3.4 03:51:27 10° NW 03:56:40 74° WSW 04:02:02 10° SSE
Cosmos 1805 3.1 03:53:19 10° NNW 03:57:12 66° W 03:59:11 27° S
Cosmos 1953 3.3 03:53:44 10° N 03:57:42 48° ENE 04:01:38 10° SSE
Cosmos 1937 Rocket 3.6 03:55:27 10° NNW 04:00:29 51° WSW 04:05:26 10° S
BREEZE-M R/B 2.9 04:00:43 37° SW 04:01:59 70° SSE 04:07:48 10° ENE
Cosmos 1766 3.9 04:00:43 10° NNW 04:04:17 35° W 04:04:57 33° WSW
Cosmos 724 4.4 04:05:15 25° SW 04:08:39 65° NW 04:14:26 10° NNE
ARIANE 5 R/B 3.5 04:06:37 10° N 04:11:14 32° WNW 04:13:42 22° WSW
Timation 2 Rocket 3.8 04:07:41 21° SW 04:11:48 77° WNW 04:17:48 10° NNE
Aureole 2 Rocket 4.0 04:09:31 10° N 04:13:11 42° ENE 04:16:39 10° SE
Lacrosse 5 rocket 3.1 04:11:25 13° WNW 04:14:16 23° NNW 04:17:34 10° NNE
Cosmos 990 Rocket 4.5 04:10:54 10° NW 04:15:37 37° WSW 04:20:20 10° SSW
USA 267 4.3 04:11:11 10° E 04:17:22 47° NNE 04:23:33 10° NW
Okean O Rocket 3.9 04:14:43 10° NE 04:18:14 23° E 04:21:43 10° SSE
Cosmos 2266 Rocket 4.0 04:16:33 10° NNW 04:22:32 62° W 04:28:34 10° S
USA 238 DEB 3.7 04:17:40 18° SW 04:22:58 80° NW 04:30:00 10° NE
USA 238 3.7 04:17:45 18° SW 04:23:04 81° NW 04:30:06 10° NE
Cosmos 1758 3.3 04:19:56 10° NNW 04:23:52 61° W 04:27:47 10° S
Cosmos 1814 Rocket 4.3 04:20:50 20° SW 04:24:07 48° WNW 04:29:09 10° N
Cosmos 44 Rocket 3.4 04:20:21 10° NW 04:25:25 61° WSW 04:30:32 10° SSE
Helios 1A Rocket 4.3 04:22:08 10° NNW 04:25:33 25° WNW 04:27:22 18° WSW
CZ-2D R/B 3.8 04:22:35 10° NNW 04:26:03 18° WNW 04:28:39 13° W
CZ-2D R/B 4.4 04:23:15 10° N 04:26:49 30° WNW 04:28:56 19° WSW
Cosmos 372 Rocket 4.2 04:22:03 10° NNW 04:27:19 78° ENE 04:32:30 10° SSE
DNEPR-1 R/B 3.7 04:26:52 15° SSW 04:30:17 73° ESE 04:34:55 10° NE
Cosmos 1733 3.3 04:30:02 10° NNW 04:33:50 56° W 04:37:37 10° S
Gblst 52 Del rocket 4.5 04:30:47 10° WNW 04:36:45 87° SSW 04:43:35 10° ESE
Cosmos 2360 Rocket 2.3 04:31:46 10° NNW 04:37:26 82° ENE 04:43:04 10° SSE
SL-16 R/B 4.3 04:36:53 11° W 04:37:45 11° W 04:39:17 10° WNW
Cosmos 1980 Rocket 3.8 04:36:24 10° WNW 04:39:05 14° W 04:39:51 13° WSW
PSLV R/B 3.4 04:37:24 10° NNE 04:41:39 84° WNW 04:45:51 10° SSW
ADEOS II 2.6 04:42:17 10° N 04:47:13 42° WNW 04:52:08 10° SW
Cosmos 2333 Rocket 4.4 04:45:59 10° N 04:50:59 31° NE 04:55:58 10° ESE
Cosmos 1812 Rocket 3.8 04:47:24 10° NNW 04:51:46 52° W 04:56:05 10° S
SL-16 R/B 2.9 04:47:43 10° NW 04:52:43 33° WSW 04:57:41 10° SSW
Cosmos 841 Rocket 4.2 04:48:23 12° SW 04:52:48 38° WNW 04:57:40 10° N
Cosmos 2082 Rocket 4.3 04:51:00 10° WNW 04:53:05 12° NW 04:55:11 10° NNW
CZ-4B R/B 2.9 04:49:28 10° NNE 04:53:44 85° WNW 04:57:46 10° SSW
COSMOS 2428 3.8 04:50:56 10° NNW 04:56:31 51° ENE 05:02:01 10° SE
Cosmos 1602 Rocket 4.2 04:54:19 10° SW 04:58:20 37° WNW 05:02:22 10° N
Cosmos 1470 3.3 04:55:47 10° NNW 04:59:30 37° W 05:03:09 10° SSW
NOSS 3-2 (C) 3.6 04:54:06 10° SSW 05:00:02 84° SE 05:06:42 10° NE
Cosmos 2219 Rocket 3.7 04:59:13 10° NNW 05:04:32 42° ENE 05:09:48 10° SE
Cosmos 1758 Rocket 3.8 05:00:14 10° S 05:04:32 75° E 05:08:55 10° NNE
Cosmos 1238 Rocket 4.2 04:58:05 10° S 05:04:37 82° W 05:11:22 10° N
Cosmos 2322 Rocket 3.1 05:03:32 10° NW 05:08:05 26° WSW 05:12:36 10° SSW
Cosmos 540 Rocket 3.9 05:03:46 10° SW 05:08:40 46° WNW 05:13:39 10° N
Meteor 1-16 Rocket 4.2 05:04:14 10° NNW 05:09:55 76° W 05:15:24 10° S
ATLAS 3B R/B 3.2 05:04:02 10° WSW 05:10:59 51° NW 05:17:40 10° NNE
USA 161 1.5 05:09:40 10° S 05:12:41 68° W 05:15:38 10° NNW
SJ 16-02 2.1 05:11:51 10° NW 05:15:45 31° W 05:19:38 10° SSW
NOSS 3-2 (A) 3.7 05:11:06 10° SW 05:17:01 60° NW 05:23:39 10° NNE
